• în România
  • Lista ţărilor
  • Pe 7 zile
  • Temperatura apei
  • Hartă satelitară
  • Meteo pe hartă
  • Widget-uri
  • user-avatar
    Intrare

    Meteo pe oră la Mokrzeszow

    Astăzi, 19 Octombrie, Vineri

    Timp Temperatura Precipitaţii Vânt Presiune Umiditate
    00:00 +10°C° 0 mm 2 m/s 740 mmHg 85%
    01:00 +10°C° 0 mm 2 m/s 740 mmHg 89%
    02:00 +9°C° 0 mm 2 m/s 740 mmHg 90%
    03:00 +9°C° 0 mm 2 m/s 740 mmHg 92%
    04:00 +9°C° 0 mm 2 m/s 740 mmHg 93%
    05:00 +9°C° 0 mm 2 m/s 740 mmHg 94%
    06:00 +9°C° 0 mm 2 m/s 740 mmHg 94%
    07:00 +9°C° 0 mm 2 m/s 741 mmHg 94%
    08:00 +10°C° 0 mm 2 m/s 741 mmHg 89%
    09:00 +13°C° 0 mm 2 m/s 741 mmHg 85%
    10:00 +14°C° 0 mm 2 m/s 741 mmHg 81%
    11:00 +14°C° 0 mm 2 m/s 741 mmHg 78%
    12:00 +14°C° 0 mm 2 m/s 741 mmHg 76%
    13:00 +15°C° 0 mm 2 m/s 741 mmHg 74%
    14:00 +15°C° 0 mm 2 m/s 741 mmHg 74%
    15:00 +15°C° 0 mm 2 m/s 741 mmHg 75%
    16:00 +14°C° 0 mm 2 m/s 741 mmHg 76%
    17:00 +14°C° 0 mm 1 m/s 741 mmHg 79%
    18:00 +13°C° 0 mm 1 m/s 741 mmHg 83%
    19:00 +12°C° 0 mm 1 m/s 741 mmHg 86%
    20:00 +12°C° 0 mm 1 m/s 742 mmHg 87%
    21:00 +11°C° 0 mm 1 m/s 742 mmHg 87%
    22:00 +11°C° 0 mm 1 m/s 742 mmHg 88%
    23:00 +11°C° 0 mm 1 m/s 742 mmHg 88%

    Mâine, 20 Octombrie, Sâmbătă

    Timp Temperatura Precipitaţii Vânt Presiune Umiditate
    00:00 +11°C° 0 mm 1 m/s 742 mmHg 88%
    01:00 +10°C° 0 mm 1 m/s 742 mmHg 88%
    02:00 +10°C° 0 mm 1 m/s 742 mmHg 88%
    03:00 +11°C° 0 mm 1 m/s 742 mmHg 87%
    04:00 +11°C° 0 mm 1 m/s 743 mmHg 86%
    05:00 +10°C° 0 mm 1 m/s 743 mmHg 86%
    06:00 +10°C° 0 mm 1 m/s 743 mmHg 86%
    07:00 +10°C° 0 mm 1 m/s 743 mmHg 86%
    08:00 +10°C° 0 mm 2 m/s 744 mmHg 81%
    09:00 +12°C° 0 mm 2 m/s 744 mmHg 76%
    10:00 +11°C° 0 mm 3 m/s 744 mmHg 71%
    11:00 +12°C° 0 mm 3 m/s 744 mmHg 66%
    12:00 +12°C° 0 mm 3 m/s 744 mmHg 61%
    13:00 +13°C° 0 mm 3 m/s 744 mmHg 56%
    14:00 +13°C° 0 mm 3 m/s 744 mmHg 56%
    15:00 +12°C° 0 mm 3 m/s 744 mmHg 57%
    16:00 +12°C° 0 mm 3 m/s 744 mmHg 58%
    17:00 +10°C° 0 mm 2 m/s 744 mmHg 63%
    18:00 +9°C° 0 mm 2 m/s 744 mmHg 68%
    19:00 +7°C° 0 mm 2 m/s 745 mmHg 73%
    20:00 +7°C° 0 mm 2 m/s 745 mmHg 75%
    21:00 +6°C° 0 mm 2 m/s 745 mmHg 77%
    22:00 +6°C° 0 mm 2 m/s 745 mmHg 79%
    23:00 +6°C° 0 mm 2 m/s 745 mmHg 80%

    Poimâine, 21 Octombrie, Duminică

    Timp Temperatura Precipitaţii Vânt Presiune Umiditate
    00:00 +6°C° 0 mm 2 m/s 745 mmHg 80%
    01:00 +6°C° 0 mm 2 m/s 745 mmHg 81%
    02:00 +6°C° 0 mm 2 m/s 745 mmHg 81%
    03:00 +6°C° 0 mm 2 m/s 744 mmHg 82%
    04:00 +6°C° 0 mm 2 m/s 744 mmHg 83%
    05:00 +6°C° 0 mm 2 m/s 744 mmHg 84%
    06:00 +6°C° 0 mm 2 m/s 744 mmHg 85%
    07:00 +6°C° 0 mm 2 m/s 744 mmHg 86%
    08:00 +7°C° 0 mm 3 m/s 744 mmHg 82%
    09:00 +8°C° 0 mm 3 m/s 744 mmHg 79%
    10:00 +9°C° 0 mm 3 m/s 744 mmHg 75%
    11:00 +10°C° 0 mm 3 m/s 744 mmHg 72%
    12:00 +10°C° 0 mm 4 m/s 744 mmHg 69%
    13:00 +11°C° 0 mm 4 m/s 744 mmHg 65%
    14:00 +11°C° 0 mm 3 m/s 743 mmHg 67%
    15:00 +10°C° 0 mm 3 m/s 743 mmHg 68%
    16:00 +10°C° 0 mm 3 m/s 743 mmHg 69%
    17:00 +9°C° 0 mm 2 m/s 743 mmHg 75%
    18:00 +8°C° 0 mm 2 m/s 743 mmHg 80%
    19:00 +8°C° 0 mm 1 m/s 743 mmHg 85%
    20:00 +8°C° 0 mm 1 m/s 743 mmHg 86%
    21:00 +7°C° 0 mm 1 m/s 743 mmHg 87%
    22:00 +7°C° 0 mm 1 m/s 743 mmHg 88%
    23:00 +7°C° 0 mm 1 m/s 743 mmHg 88%

    22 Octombrie, Luni

    Timp Temperatura Precipitaţii Vânt Presiune Umiditate
    00:00 +6°C° 0 mm 1 m/s 743 mmHg 89%
    01:00 +6°C° 0 mm 1 m/s 743 mmHg 90%
    02:00 +6°C° 0 mm 1 m/s 742 mmHg 90%
    03:00 +5°C° 0 mm 1 m/s 742 mmHg 90%
    04:00 +5°C° 0 mm 1 m/s 742 mmHg 90%
    05:00 +5°C° 0 mm 1 m/s 742 mmHg 90%
    06:00 +5°C° 0 mm 1 m/s 742 mmHg 89%
    07:00 +5°C° 0 mm 1 m/s 742 mmHg 89%
    08:00 +7°C° 0 mm 1 m/s 742 mmHg 79%
    09:00 +9°C° 0 mm 1 m/s 742 mmHg 70%
    10:00 +11°C° 0 mm 1 m/s 742 mmHg 60%
    11:00 +12°C° 0 mm 2 m/s 742 mmHg 57%
    12:00 +13°C° 0 mm 2 m/s 742 mmHg 53%
    13:00 +14°C° 0 mm 2 m/s 741 mmHg 50%
    14:00 +12°C° 0 mm 3 m/s 741 mmHg 57%
    15:00 +11°C° 0 mm 3 m/s 741 mmHg 63%
    16:00 +10°C° 0 mm 3 m/s 741 mmHg 70%
    17:00 +10°C° 0.4 mm 3 m/s 741 mmHg 76%
    18:00 +8°C° 0.4 mm 4 m/s 741 mmHg 82%
    19:00 +7°C° 0.4 mm 4 m/s 741 mmHg 88%
    20:00 +7°C° 0.8 mm 4 m/s 741 mmHg 87%
    21:00 +6°C° 0.8 mm 4 m/s 741 mmHg 86%
    22:00 +6°C° 0.8 mm 4 m/s 742 mmHg 86%
    23:00 +5°C° 0.3 mm 4 m/s 742 mmHg 85%

    23 Octombrie, Marţi

    Timp Temperatura Precipitaţii Vânt Presiune Umiditate
    00:00 +5°C° 0.3 mm 4 m/s 742 mmHg 84%
    01:00 +5°C° 0.3 mm 4 m/s 742 mmHg 83%
    02:00 +4°C° 0 mm 4 m/s 741 mmHg 84%
    03:00 +3°C° 0 mm 3 m/s 741 mmHg 86%
    04:00 +3°C° 0 mm 3 m/s 741 mmHg 87%
    05:00 +3°C° 0 mm 3 m/s 741 mmHg 88%
    06:00 +2°C° 0 mm 3 m/s 741 mmHg 89%
    07:00 +2°C° 0 mm 3 m/s 741 mmHg 90%
    08:00 +4°C° 0 mm 3 m/s 741 mmHg 83%
    09:00 +5°C° 0 mm 4 m/s 741 mmHg 76%
    10:00 +6°C° 0 mm 4 m/s 741 mmHg 69%
    11:00 +7°C° 0 mm 5 m/s 741 mmHg 65%
    12:00 +8°C° 0 mm 5 m/s 740 mmHg 62%
    13:00 +9°C° 0 mm 5 m/s 740 mmHg 58%
    14:00 +8°C° 0 mm 5 m/s 739 mmHg 60%
    15:00 +8°C° 0 mm 5 m/s 739 mmHg 62%
    16:00 +8°C° 0 mm 5 m/s 738 mmHg 64%
    17:00 +7°C° 0.2 mm 5 m/s 738 mmHg 69%
    18:00 +7°C° 0.2 mm 5 m/s 738 mmHg 74%
    19:00 +6°C° 0.2 mm 5 m/s 737 mmHg 79%
    20:00 +6°C° 0 mm 5 m/s 737 mmHg 81%
    21:00 +6°C° 0 mm 5 m/s 737 mmHg 84%
    22:00 +6°C° 0 mm 4 m/s 737 mmHg 86%
    23:00 +7°C° 0 mm 4 m/s 736 mmHg 86%

    24 Octombrie, Miercuri

    Timp Temperatura Precipitaţii Vânt Presiune Umiditate
    00:00 +7°C° 0 mm 5 m/s 736 mmHg 86%
    01:00 +7°C° 0 mm 5 m/s 735 mmHg 86%
    02:00 +7°C° 0.3 mm 5 m/s 735 mmHg 86%
    03:00 +8°C° 0.3 mm 6 m/s 734 mmHg 86%
    04:00 +8°C° 0.3 mm 7 m/s 733 mmHg 85%
    05:00 +8°C° 0.7 mm 7 m/s 732 mmHg 85%
    06:00 +9°C° 0.7 mm 8 m/s 731 mmHg 85%
    07:00 +9°C° 0.7 mm 8 m/s 731 mmHg 85%
    08:00 +10°C° 0.3 mm 8 m/s 730 mmHg 85%
    09:00 +10°C° 0.3 mm 8 m/s 730 mmHg 84%
    10:00 +11°C° 0.3 mm 8 m/s 729 mmHg 84%
    11:00 +11°C° 0.3 mm 9 m/s 729 mmHg 82%
    12:00 +11°C° 0.3 mm 9 m/s 729 mmHg 80%
    13:00 +11°C° 0.3 mm 10 m/s 729 mmHg 77%
    14:00 +10°C° 0.1 mm 9 m/s 729 mmHg 75%
    15:00 +10°C° 0.1 mm 9 m/s 730 mmHg 72%
    16:00 +8°C° 0.1 mm 9 m/s 730 mmHg 70%
    17:00 +9°C° 0.1 mm 8 m/s 731 mmHg 69%
    18:00 +7°C° 0.1 mm 8 m/s 732 mmHg 68%
    19:00 +8°C° 0.1 mm 7 m/s 733 mmHg 67%
    20:00 +6°C° 0 mm 7 m/s 733 mmHg 67%
    21:00 +6°C° 0 mm 7 m/s 734 mmHg 68%
    22:00 +5°C° 0 mm 6 m/s 735 mmHg 68%
    23:00 +4°C° 0 mm 6 m/s 735 mmHg 69%
    Arată mai mult